time_stamp(utc),avg(mph),gust(mph),direction(deg),12m_air_temp(f),sonic_u(cm/s),sonic_v(cm/s),sonic_w(cm/s),pressure,2m_air_temp(f),pyranometer(W/m^2)
"2016-07-31 00:00:53+00",6.2,7.2,,76,199,-169,4,1015.39,76.2,0
"2016-07-31 00:05:53+00",6.9,7.9,,76,230,-191,1,1015.35,76,0
"2016-07-31 00:10:53+00",6.8,7.8,,76,236,-183,1,1015.37,76,0
"2016-07-31 00:15:53+00",9.1,10.1,,76.1,298,-263,-3,1015.36,75.9,0
"2016-07-31 00:20:53+00",8.0,9.0,,76,263,-220,7,1015.42,75.9,0
"2016-07-31 00:25:53+00",8.3,9.3,,76,262,-249,5,1015.53,75.9,0
"2016-07-31 00:30:53+00",8.0,9.0,,76,226,-237,-42,1015.58,75.8,0
"2016-07-31 00:35:53+00",8.3,10.3,,76,259,-236,-44,1015.54,75.8,0
"2016-07-31 00:40:53+00",8.2,10.2,,76,239,-246,-40,1015.56,75.8,0
"2016-07-31 00:45:53+00",7.9,8.9,,76.1,211,-224,-59,1015.69,75.9,0
"2016-07-31 00:50:53+00",6.6,7.6,,76.1,186,-192,-19,1015.77,75.9,0
"2016-07-31 00:55:53+00",7.5,8.5,,76,257,-189,4,1015.64,75.8,0
"2016-07-31 01:00:53+00",7.9,8.9,,76,275,-208,-4,1015.64,75.8,0
"2016-07-31 01:05:53+00",7.7,8.7,,76,269,-211,1,1015.66,75.7,0
"2016-07-31 01:10:53+00",8.0,9.0,,76.1,262,-234,-3,1015.73,75.7,0
"2016-07-31 01:15:53+00",8.6,9.6,,76.1,290,-233,-2,1015.72,75.7,0
"2016-07-31 01:20:53+00",8.3,10.3,,76.1,283,-223,5,1015.78,75.8,0
"2016-07-31 01:25:53+00",9.0,10.0,,76,309,-231,-2,1015.77,75.7,0
"2016-07-31 01:30:53+00",8.2,9.2,,75.8,297,-203,1,1015.77,75.6,0
"2016-07-31 01:35:53+00",8.9,9.9,,75.7,343,-179,1,1015.78,75.5,0
"2016-07-31 01:40:53+00",8.5,9.5,,75.7,314,-192,0,1015.74,75.4,0
"2016-07-31 01:45:53+00",8.0,9.0,,75.6,276,-201,2,1015.76,75.4,0
"2016-07-31 01:50:53+00",8.3,9.3,,75.6,299,-205,8,1015.64,75.4,0
"2016-07-31 01:55:53+00",8.4,9.4,,75.5,331,-173,-2,1015.5,75.3,0
"2016-07-31 02:00:53+00",9.0,10.0,,75.4,337,-158,-61,1015.45,75.2,0
"2016-07-31 02:05:53+00",8.9,9.9,,75.4,307,-180,-63,1015.5,75.1,0
"2016-07-31 02:10:53+00",8.4,10.4,,75.3,298,-170,-76,1015.44,75.1,0
"2016-07-31 02:15:53+00",9.1,11.1,,75.3,320,-168,-72,1015.35,75,0
"2016-07-31 02:20:53+00",8.6,9.6,,75.3,284,-201,-67,1015.43,75,0
"2016-07-31 02:25:53+00",7.8,9.8,,75.2,235,-195,-59,1015.51,75,0
"2016-07-31 02:30:53+00",7.0,9.0,,75.3,172,-207,-75,1015.69,75,0
"2016-07-31 02:35:53+00",6.2,7.2,,75.4,152,-165,-55,1015.78,75.1,0
"2016-07-31 02:40:53+00",6.4,7.4,,75.4,181,-124,-70,1015.71,75.1,0
"2016-07-31 02:45:53+00",6.3,7.3,,75.3,200,-101,-73,1015.61,75,0
"2016-07-31 02:50:53+00",7.3,8.3,,75.2,246,-109,-77,1015.44,74.9,0
"2016-07-31 02:55:53+00",6.9,7.9,,75.1,210,-130,-72,1015.5,74.9,0
"2016-07-31 03:00:53+00",8.1,9.1,,75,254,-173,-89,1015.38,74.8,0
"2016-07-31 03:05:53+00",10.1,11.1,,75,339,-244,-78,1015.2,74.8,0
"2016-07-31 03:10:53+00",11.3,12.3,,75,394,-285,-67,1015.06,74.8,0
"2016-07-31 03:15:53+00",10.6,12.6,,75,341,-276,-71,1015.12,74.8,0
"2016-07-31 03:20:53+00",7.8,9.8,,75.1,253,-209,-43,1015.39,74.8,0
"2016-07-31 03:25:53+00",7.0,8.0,,75.2,246,-137,-56,1015.41,74.8,0
"2016-07-31 03:30:53+00",7.1,8.1,,75.2,256,-115,-58,1015.47,74.9,0
"2016-07-31 03:35:53+00",6.7,7.7,,75.3,259,-81,-36,1015.5,75,0
"2016-07-31 03:40:53+00",6.8,7.8,,75.3,262,-113,-55,1015.44,75.1,0
"2016-07-31 03:45:53+00",6.4,7.4,,75.3,238,-114,-59,1015.52,75.1,0
"2016-07-31 03:50:53+00",6.8,7.8,,75.3,238,-132,-58,1015.49,75.1,0
"2016-07-31 03:55:53+00",7.2,8.2,,75.4,228,-177,-53,1015.44,75.2,0
"2016-07-31 04:00:53+00",6.6,7.6,,75.4,191,-178,-45,1015.39,75.2,0
"2016-07-31 04:05:53+00",7.5,8.5,,75.4,249,-209,-53,1015.32,75.2,0
"2016-07-31 04:10:53+00",8.1,9.1,,75.4,249,-213,-60,1015.32,75.2,0
"2016-07-31 04:15:53+00",8.2,9.2,,75.4,273,-235,-36,1015.16,75.2,0
"2016-07-31 04:20:53+00",8.9,9.9,,75.4,279,-259,-58,1015.17,75.2,0
"2016-07-31 04:25:53+00",9.1,11.1,,75.4,302,-255,-33,1015.07,75.2,0
"2016-07-31 04:30:53+00",9.5,10.5,,75.3,301,-266,-40,1015.06,75.2,0
"2016-07-31 04:35:53+00",8.1,9.1,,75.3,255,-232,-48,1015.1,75.1,0
"2016-07-31 04:40:53+00",8.7,10.7,,75.3,279,-240,-44,1015.08,75.1,0
"2016-07-31 04:45:53+00",8.1,9.1,,75.4,227,-221,-59,1015.08,75.2,0
"2016-07-31 04:50:53+00",8.6,10.6,,75.4,240,-247,-64,1015.05,75.2,0
"2016-07-31 04:55:53+00",9.1,11.1,,75.4,283,-249,-68,1014.89,75.2,0
"2016-07-31 05:00:53+00",9.5,11.5,,75.4,295,-273,-51,1014.79,75.2,0
"2016-07-31 05:05:53+00",10.8,12.8,,75.4,361,-296,-50,1014.59,75.2,0
"2016-07-31 05:10:53+00",11.5,13.5,,75.4,401,-295,-42,1014.44,75.2,0
"2016-07-31 05:15:53+00",9.2,11.2,,75.2,309,-250,-34,1014.34,75.1,0
"2016-07-31 05:20:53+00",10.8,12.8,,75.2,375,-280,-53,1014.11,75.1,0
"2016-07-31 05:25:53+00",11.4,13.4,,75.1,413,-290,-41,1013.91,75,0
"2016-07-31 05:30:53+00",10.1,11.1,,75.1,331,-290,-19,1013.9,75,0
"2016-07-31 05:35:53+00",12.0,13.0,,75.1,435,-310,-44,1013.76,74.9,0
"2016-07-31 05:40:53+00",10.1,12.1,,75.1,366,-258,-33,1013.76,74.9,0
"2016-07-31 05:45:53+00",10.7,12.7,,75.1,382,-272,-48,1013.7,74.9,0
"2016-07-31 05:50:53+00",10.7,12.7,,75.2,391,-276,-59,1013.75,74.8,0
"2016-07-31 05:55:53+00",9.8,10.8,,75.3,325,-225,-68,1013.71,74.8,0
"2016-07-31 06:00:53+00",9.4,10.4,,75.3,306,-225,-69,1013.67,74.8,0
"2016-07-31 06:05:53+00",9.3,10.3,,75.3,309,-223,-49,1013.62,74.8,0
"2016-07-31 06:10:53+00",8.6,10.6,,75.3,292,-194,-61,1013.61,74.8,0
"2016-07-31 06:15:53+00",9.2,11.2,,75.2,312,-210,-74,1013.59,74.8,0
"2016-07-31 06:20:53+00",9.0,11.0,,75.2,298,-194,-72,1013.52,74.8,0
"2016-07-31 06:25:53+00",9.1,11.1,,75.2,300,-222,-81,1013.68,74.8,0
"2016-07-31 06:30:53+00",9.8,10.8,,75.3,329,-211,-79,1013.53,74.9,0
"2016-07-31 06:35:53+00",9.5,10.5,,75.4,339,-223,-39,1013.52,74.9,0
"2016-07-31 06:40:53+00",9.6,11.6,,75.4,361,-209,-27,1013.45,74.9,0
"2016-07-31 06:45:53+00",9.5,11.5,,75.3,352,-209,-21,1013.49,75,0
"2016-07-31 06:50:53+00",10.5,12.5,,75.3,387,-263,-20,1013.44,75,0
"2016-07-31 06:55:53+00",11.6,13.6,,75.4,410,-284,-53,1013.34,75.1,0
"2016-07-31 07:00:53+00",9.7,11.7,,75.5,367,-218,-10,1013.29,75.2,0
"2016-07-31 07:05:53+00",11.4,12.4,,75.5,412,-287,-16,1013.39,75.2,0
"2016-07-31 07:10:53+00",11.7,12.7,,75.5,424,-300,-25,1013.42,75.2,0
"2016-07-31 07:15:53+00",9.8,10.8,,75.5,381,-227,-23,1013.41,75.2,0
"2016-07-31 07:20:53+00",8.9,10.9,,75.5,325,-228,-15,1013.46,75.2,0
"2016-07-31 07:25:53+00",9.9,11.9,,75.5,361,-257,-18,1013.41,75.3,0
"2016-07-31 07:30:53+00",11.7,14.7,,75.8,414,-325,-29,1013.43,75.3,0
"2016-07-31 07:35:53+00",9.3,10.3,,75.7,304,-269,-15,1013.49,75.4,0
"2016-07-31 07:40:53+00",9.9,11.9,,75.6,314,-287,-39,1013.46,75.4,0
"2016-07-31 07:45:53+00",10.6,12.6,,75.7,327,-333,-45,1013.43,75.4,0
"2016-07-31 07:50:53+00",10.6,12.6,,75.8,309,-333,-61,1013.41,75.5,0
"2016-07-31 07:55:53+00",10.9,11.9,,75.8,328,-342,-61,1013.43,75.4,0
"2016-07-31 08:00:53+00",10.8,12.8,,75.8,323,-317,-53,1013.4,75.4,0
"2016-07-31 08:05:53+00",12.0,13.0,,75.7,346,-377,-75,1013.32,75.4,0
"2016-07-31 08:10:53+00",10.6,12.6,,75.7,310,-332,-69,1013.29,75.4,0
"2016-07-31 08:15:53+00",9.9,11.9,,75.6,296,-289,-78,1013.22,75.4,0
"2016-07-31 08:20:53+00",9.2,10.2,,75.5,299,-240,-44,1013.2,75.3,0
"2016-07-31 08:25:53+00",8.4,11.4,,75.5,265,-243,-44,1013.15,75.2,0
"2016-07-31 08:30:53+00",11.3,13.3,,75.7,354,-325,-77,1013.08,75.3,0
"2016-07-31 08:35:53+00",11.4,14.4,,75.9,352,-348,-53,1013.06,75.4,0
"2016-07-31 08:40:53+00",11.7,12.7,,75.8,327,-391,-57,1012.95,75.4,0
"2016-07-31 08:45:53+00",11.5,13.5,,75.7,351,-362,-58,1012.89,75.4,0
"2016-07-31 08:50:53+00",12.1,13.1,,75.6,380,-389,-51,1013,75.4,0
"2016-07-31 08:55:53+00",11.9,12.9,,75.6,337,-395,-56,1013.12,75.4,0
"2016-07-31 09:00:53+00",12.9,14.9,,75.7,370,-446,-54,1013.09,75.4,0
"2016-07-31 09:05:53+00",13.6,14.6,,75.8,389,-445,-62,1013.15,75.5,0
"2016-07-31 09:10:53+00",12.4,14.4,,75.7,333,-422,-65,1013.19,75.4,0
"2016-07-31 09:15:53+00",12.2,14.2,,75.6,370,-377,-53,1013.3,75.4,0
"2016-07-31 09:20:53+00",11.0,12.0,,75.6,362,-324,-26,1013.31,75.4,0
"2016-07-31 09:25:53+00",10.9,11.9,,75.7,368,-293,-43,1013.28,75.4,0
"2016-07-31 09:30:53+00",10.6,12.6,,75.8,364,-294,-35,1013.33,75.4,0
"2016-07-31 09:35:53+00",10.6,12.6,,75.7,385,-255,4,1013.39,75.4,0
"2016-07-31 09:40:53+00",11.4,12.4,,75.6,441,-239,-3,1013.32,75.3,0
"2016-07-31 09:45:53+00",11.4,12.4,,75.5,445,-250,-7,1013.48,75.2,0
"2016-07-31 09:50:53+00",10.5,11.5,,75.5,396,-240,9,1013.64,75.2,0
"2016-07-31 09:55:53+00",9.7,11.7,,75.5,347,-252,3,1013.7,75.2,0
"2016-07-31 10:00:53+00",8.0,9.0,,75.6,284,-205,14,1013.85,75.3,0
"2016-07-31 10:05:53+00",8.5,10.5,,75.6,319,-191,5,1013.9,75.3,0
"2016-07-31 10:10:53+00",9.1,11.1,,75.6,331,-229,-8,1013.93,75.3,0
"2016-07-31 10:15:53+00",9.7,10.7,,75.6,331,-257,-12,1013.89,75.3,0
"2016-07-31 10:20:53+00",9.5,10.5,,75.5,334,-253,-7,1013.95,75.3,0
"2016-07-31 10:25:53+00",9.1,10.1,,75.5,319,-245,2,1013.89,75.3,0
"2016-07-31 10:30:53+00",10.2,12.2,,75.5,356,-267,4,1013.86,75.3,0
"2016-07-31 10:35:53+00",10.3,12.3,,75.6,333,-300,-6,1013.82,75.3,0
"2016-07-31 10:40:53+00",10.3,13.3,,75.6,321,-325,-9,1013.79,75.4,0
"2016-07-31 10:45:53+00",9.5,12.5,,75.6,291,-290,3,1013.81,75.4,0
"2016-07-31 10:50:53+00",10.2,11.2,,75.7,306,-325,-1,1013.76,75.5,0
"2016-07-31 10:55:53+00",10.4,11.4,,75.9,298,-345,-4,1013.8,75.6,0
"2016-07-31 11:00:53+00",10.6,12.6,,75.9,322,-346,4,1013.7,75.7,0
"2016-07-31 11:05:53+00",10.9,12.9,,76,319,-358,-12,1013.67,75.8,0
"2016-07-31 11:10:53+00",10.2,11.2,,76.2,318,-316,-2,1013.72,76,0
"2016-07-31 11:15:53+00",10.1,12.1,,76.4,297,-328,2,1013.7,76.2,9.5
"2016-07-31 11:20:53+00",8.4,9.4,,76.3,266,-260,-3,1013.75,76.2,3.1
"2016-07-31 11:25:53+00",10.1,11.1,,76.2,316,-302,-9,1013.8,76.3,12.8
"2016-07-31 11:30:53+00",8.9,9.9,,76.1,287,-262,8,1013.83,76.3,0.4
"2016-07-31 11:35:53+00",7.9,9.9,,76,221,-264,-5,1014.01,76.2,0
"2016-07-31 11:40:53+00",8.6,10.6,,76,282,-251,12,1014.09,76.1,0
"2016-07-31 11:45:53+00",12.0,13.0,,76,382,-356,-11,1014.04,76.1,0
"2016-07-31 11:50:53+00",9.8,10.8,,76,275,-326,-1,1014.04,76.1,0.9
"2016-07-31 11:55:53+00",8.9,9.9,,76.1,229,-322,-3,1014.15,76.2,0.3
"2016-07-31 12:00:53+00",6.1,8.1,,76,-32,-257,-2,1014.19,76.1,0
"2016-07-31 12:05:53+00",8.2,11.2,,76.4,47,-345,-17,1014.1,76.2,0.8
"2016-07-31 12:10:53+00",9.4,11.4,,76.8,-65,-387,-17,1014.09,76.6,3.6
"2016-07-31 12:15:53+00",7.4,9.4,,76.8,-12,-297,1,1014.08,76.8,21.3
"2016-07-31 12:20:53+00",7.2,10.2,,76.9,-11,-309,-1,1014.03,76.9,36.7
"2016-07-31 12:25:53+00",7.1,10.1,,77,-13,-286,18,1013.96,77.2,81.4
"2016-07-31 12:30:53+00",8.2,11.2,,77.3,-67,-344,-17,1013.92,77.6,41.1
"2016-07-31 12:35:53+00",8.4,10.4,,77.7,-49,-352,-18,1013.97,77.8,33.3
"2016-07-31 12:40:53+00",6.6,7.6,,77.8,8,-275,1,1013.96,78,42
"2016-07-31 12:45:53+00",7.9,8.9,,77.8,46,-327,-21,1013.96,78.1,47.3
"2016-07-31 12:50:53+00",6.5,7.5,,77.9,39,-271,-1,1014.04,78.2,60.6
"2016-07-31 12:55:53+00",6.3,8.3,,78.1,59,-262,1,1014.22,78.6,86.3
"2016-07-31 13:00:53+00",6.9,8.9,,78.1,99,-272,11,1014.18,78.6,70.1
"2016-07-31 13:05:53+00",7.4,8.4,,78,135,-286,-15,1014.29,78.5,80
"2016-07-31 13:10:53+00",6.8,7.8,,78,129,-256,0,1014.28,78.7,113.8
"2016-07-31 13:15:53+00",6.4,7.4,,78.1,103,-250,9,1014.31,78.9,99.2
"2016-07-31 13:20:53+00",6.5,7.5,,78.4,28,-266,-7,1014.19,79.2,149.2
"2016-07-31 13:25:53+00",5.1,6.1,,78.5,5,-203,6,1014.1,79.3,109.3
"2016-07-31 13:30:53+00",5.0,7.0,,78.8,-29,-197,23,1014.12,79.5,117.1
"2016-07-31 13:35:53+00",6.2,7.2,,79,-79,-247,-7,1014.07,79.8,318.5
"2016-07-31 13:40:53+00",5.1,6.1,,79.5,-122,-173,7,1013.91,80.9,375.2
"2016-07-31 13:45:53+00",5.3,6.3,,79.4,-117,-191,-15,1013.95,81.7,195.2
"2016-07-31 13:50:53+00",7.8,8.8,,80.2,-292,-182,18,1014.06,82.5,341.6
"2016-07-31 13:55:53+00",9.3,10.3,,80.4,-390,-74,11,1014.07,83.8,350.2
"2016-07-31 14:00:53+00",8.7,10.7,,80.4,-385,15,43,1014.04,84.6,180.8
"2016-07-31 14:05:53+00",7.1,9.1,,80.4,-308,-86,22,1014.1,84.9,355.9
"2016-07-31 14:10:53+00",6.8,7.8,,80.6,-254,-158,11,1014.1,85.4,367.9
"2016-07-31 14:15:53+00",8.0,9.0,,80.8,-310,-170,14,1014.09,86.3,379.4
"2016-07-31 14:20:53+00",7.1,9.1,,80.8,-305,-123,7,1014.1,86.8,392.7
"2016-07-31 14:25:53+00",6.3,8.3,,80.9,-273,-114,-2,1014.1,87.3,405.5
"2016-07-31 14:30:53+00",4.4,5.4,,81,-146,-112,3,1014.29,87.9,193.7
"2016-07-31 14:35:53+00",4.4,5.4,,81.2,-152,-98,45,1014.28,87.3,128.8
"2016-07-31 14:40:53+00",3.4,4.4,,81.2,-130,-6,33,1014.42,87.1,23.8
"2016-07-31 14:45:53+00",8.6,12.6,,80.4,337,161,17,1014.61,86.1,55.6
"2016-07-31 14:50:53+00",12.1,13.1,,78,483,232,2,1014.6,82.3,50.9
"2016-07-31 14:55:53+00",9.9,10.9,,77.8,385,205,47,1014.52,80.8,262
"2016-07-31 15:00:53+00",11.3,12.3,,77.6,397,295,9,1014.75,80.3,197.2
"2016-07-31 15:05:53+00",14.3,16.3,,77.4,401,430,9,1014.72,79.5,19.5
"2016-07-31 15:10:53+00",11.5,13.5,,76.4,452,252,8,1014.83,77.8,53.1
"2016-07-31 15:15:53+00",11.5,13.5,,76.1,358,336,4,1014.94,77,75
"2016-07-31 15:20:53+00",8.6,9.6,,75.6,235,271,11,1015.06,76.3,38.5
"2016-07-31 15:25:53+00",10.1,11.1,,75,362,263,24,1014.86,75.6,36.9
"2016-07-31 15:30:53+00",9.3,10.3,,74.7,404,105,15,1014.9,75.3,6.2
"2016-07-31 15:35:53+00",8.7,9.7,,74.7,373,85,26,1014.93,75.3,4.1
"2016-07-31 15:40:53+00",8.0,9.0,,74.5,345,-49,3,1014.91,74.8,6
"2016-07-31 15:45:53+00",8.5,9.5,,74.6,363,-51,3,1014.79,74.9,32.3
"2016-07-31 15:50:53+00",7.9,8.9,,74.6,336,-53,-1,1014.63,74.9,28.4
"2016-07-31 15:55:53+00",7.4,8.4,,74.8,284,-141,4,1014.64,74.9,30.6
"2016-07-31 16:00:53+00",7.3,8.3,,74.8,290,-123,-7,1014.55,74.9,55.9
"2016-07-31 16:05:53+00",5.8,6.8,,75.3,253,-30,9,1014.57,75.8,274.2
"2016-07-31 16:10:53+00",7.1,7.1,,75.6,269,-147,3,1014.53,75.8,182.2
"2016-07-31 16:15:53+00",7.2,8.2,,76.2,276,-146,9,1014.42,76.8,563.2
"2016-07-31 16:20:53+00",7.2,8.2,,76.7,269,-155,-20,1014.47,77,541.6
"2016-07-31 16:25:53+00",6.2,7.2,,77.3,258,38,26,1014.28,78,541.9
"2016-07-31 16:30:53+00",4.7,5.7,,77.8,197,20,9,1014.4,78.4,543.4
"2016-07-31 16:35:53+00",4.6,5.6,,78.5,191,41,37,1014.39,79.1,539.5
"2016-07-31 16:40:53+00",4.8,5.8,,78.8,196,40,17,1014.26,79.9,543.7
"2016-07-31 16:45:53+00",3.5,4.5,,79.3,143,11,-9,1014.15,80.5,536.4
"2016-07-31 16:50:53+00",7.0,8.0,,79.5,240,-175,-1,1014.14,81.1,474
"2016-07-31 16:55:53+00",6.1,8.1,,79.5,194,-184,4,1014.26,81.1,543.1
"2016-07-31 17:00:53+00",7.9,9.9,,79.1,289,-173,4,1014.11,81.4,523.3
"2016-07-31 17:05:53+00",4.0,6.0,,79.3,53,-136,29,1014.21,81.7,616.7
"2016-07-31 17:10:53+00",5.6,8.6,,80.1,174,-155,8,1014.07,82.5,573.4
"2016-07-31 17:15:53+00",6.4,8.4,,79.9,43,-257,36,1014.16,81.9,228
"2016-07-31 17:20:53+00",10.0,12.0,,79.6,229,-367,-23,1014,81.7,541.2
"2016-07-31 17:25:53+00",7.6,8.6,,79.4,245,-214,12,1014.14,81.8,531.8
"2016-07-31 17:30:53+00",8.1,10.1,,79.2,135,-319,13,1014.14,81.7,533.2
"2016-07-31 17:35:53+00",10.4,11.4,,78.9,453,-100,-2,1014.06,81.9,531.1
"2016-07-31 17:40:53+00",9.1,10.1,,78.3,360,-170,0,1014.15,81.3,535.7
"2016-07-31 17:45:53+00",6.7,7.7,,78.6,275,-96,-1,1014.1,81.4,530.6
"2016-07-31 17:50:53+00",8.9,9.9,,79,294,-254,-3,1013.89,82,525.7
"2016-07-31 17:55:53+00",9.1,10.1,,78.9,364,-187,-9,1013.9,82.1,523.9
"2016-07-31 18:00:53+00",9.1,10.1,,78.9,372,-147,-29,1014.09,82,523.5
"2016-07-31 18:05:53+00",7.7,9.7,,78.9,318,-129,-17,1014.1,82.1,537.9
"2016-07-31 18:10:53+00",7.8,8.8,,79.3,271,-191,14,1013.87,82.2,532.3
"2016-07-31 18:15:53+00",10.1,12.1,,79.7,404,-198,17,1013.91,82.7,515.2
"2016-07-31 18:20:53+00",10.7,11.7,,79.1,445,-176,3,1013.9,82.4,506.8
"2016-07-31 18:25:53+00",10.0,12.0,,79,418,-132,18,1013.97,82.3,501.7
"2016-07-31 18:30:53+00",9.9,11.9,,78.8,385,-215,-21,1014.02,81.7,495.6
"2016-07-31 18:35:53+00",9.8,11.8,,78.9,373,-201,10,1013.98,81.7,487.2
"2016-07-31 18:40:53+00",11.4,12.4,,79.2,387,-321,-16,1013.98,82.1,482.1
"2016-07-31 18:45:53+00",10.6,12.6,,79.4,386,-265,11,1013.87,82.3,479.8
"2016-07-31 18:50:53+00",11.6,12.6,,79.3,431,-270,-20,1013.78,82.2,472.1
"2016-07-31 18:55:53+00",9.4,10.4,,79.4,325,-244,22,1013.88,82.4,469.3
"2016-07-31 19:00:53+00",10.3,12.3,,79.7,226,-382,-16,1013.76,82,462.4
"2016-07-31 19:05:53+00",10.4,12.4,,80,309,-314,27,1013.69,82.1,302.3
"2016-07-31 19:10:53+00",11.2,13.2,,79.9,455,-198,18,1013.62,82.3,267.2
"2016-07-31 19:15:53+00",12.5,13.5,,79.2,559,-6,30,1013.66,82,416.4
"2016-07-31 19:20:53+00",9.0,10.0,,79.3,374,-115,22,1013.5,82.3,416.4
"2016-07-31 19:25:53+00",8.0,9.0,,79.6,324,-145,34,1013.4,82.3,430.2
"2016-07-31 19:30:53+00",9.6,10.6,,80.1,400,-156,-5,1013.24,82.8,419.8
"2016-07-31 19:35:53+00",9.5,13.5,,79.7,358,-213,10,1013.21,83,413.7
"2016-07-31 19:40:53+00",8.1,9.1,,79.6,308,-170,-1,1013.29,83.1,403.9
"2016-07-31 19:45:53+00",8.7,10.7,,79.6,373,-103,21,1013.26,82.6,63.5
"2016-07-31 19:50:53+00",10.5,12.5,,79.5,441,-141,17,1013.32,82.2,402.1
"2016-07-31 19:55:53+00",8.7,10.7,,79.4,326,-184,58,1013.31,82.6,402.6
"2016-07-31 20:00:53+00",8.5,9.5,,79.3,298,-219,1,1013.3,82.3,98.7
"2016-07-31 20:05:53+00",7.9,8.9,,79.3,336,-96,13,1013.37,81.8,81.8
"2016-07-31 20:10:53+00",8.8,9.8,,79.2,357,-149,-15,1013.3,81.3,35.9
"2016-07-31 20:15:53+00",8.0,9.0,,79,338,-107,-13,1013.31,80.7,50
"2016-07-31 20:20:53+00",8.2,9.2,,79,340,-116,-3,1013.28,80.6,37.5
"2016-07-31 20:25:53+00",6.6,7.6,,78.9,288,-18,18,1013.51,80.3,7.3
"2016-07-31 20:30:53+00",6.8,7.8,,78.7,299,28,16,1013.5,80.2,48.8
"2016-07-31 20:35:53+00",7.3,8.3,,78.4,311,-77,-9,1013.41,79.7,100.6
"2016-07-31 20:40:53+00",8.3,9.3,,78.5,336,-148,7,1013.27,79.8,314.2
"2016-07-31 20:45:53+00",9.9,10.9,,78.7,386,-210,-10,1013.22,79.9,308.7
"2016-07-31 20:50:53+00",11.5,13.5,,78.8,443,-246,-27,1013.26,80,289.2
"2016-07-31 20:55:53+00",10.1,12.1,,79.2,365,-254,16,1013.24,80.5,281.7
"2016-07-31 21:00:53+00",10.5,11.5,,79,379,-252,-14,1013.33,80.7,280.2
"2016-07-31 21:05:53+00",10.7,11.7,,79.1,392,-253,0,1013.34,80.8,264.1
"2016-07-31 21:10:53+00",10.5,12.5,,79.5,404,-231,-4,1013.33,81,253.9
"2016-07-31 21:15:53+00",11.7,13.7,,79.2,422,-299,-17,1013.23,81,244.2
"2016-07-31 21:20:53+00",10.9,12.9,,79.2,417,-238,2,1013.12,81,230.7
"2016-07-31 21:25:53+00",12.7,14.7,,79.3,451,-324,-17,1013.04,81,219.5
"2016-07-31 21:30:53+00",12.0,13.0,,79.7,403,-338,14,1013.11,81.3,210.3
"2016-07-31 21:35:53+00",9.8,10.8,,80,332,-272,-5,1013.13,81.4,202.2
"2016-07-31 21:40:53+00",8.3,9.3,,80.1,262,-244,24,1012.94,81.5,194.6
"2016-07-31 21:45:53+00",9.3,10.3,,79.9,363,-195,-2,1013.02,81.5,3.5
"2016-07-31 21:50:53+00",9.6,10.6,,79.4,378,-183,-1,1013.19,80.9,1.3
"2016-07-31 21:55:53+00",8.3,9.3,,79.1,351,-116,6,1013.23,80.2,2.2
"2016-07-31 22:00:53+00",9.3,10.3,,78.9,376,-168,-8,1013.18,79.8,14.1
"2016-07-31 22:05:53+00",7.5,8.5,,79.1,298,-136,-9,1013.16,79.8,169.5
"2016-07-31 22:10:53+00",7.9,8.9,,79.5,279,-191,24,1013.17,80.5,181.3
"2016-07-31 22:15:53+00",8.7,9.7,,79.9,292,-249,18,1013.04,81.2,145.4
"2016-07-31 22:20:53+00",7.4,9.4,,79.9,298,-142,4,1012.98,81.2,115.9
"2016-07-31 22:25:53+00",8.1,9.1,,79.7,353,-57,-3,1012.95,81,99.1
"2016-07-31 22:30:53+00",10.1,11.1,,79.3,447,47,4,1013.09,81,101
"2016-07-31 22:35:53+00",7.9,8.9,,79,341,-66,6,1012.99,80.5,92.2
"2016-07-31 22:40:53+00",9.2,10.2,,79.2,365,-175,0,1012.89,80.3,83.4
"2016-07-31 22:45:53+00",8.4,9.4,,79.3,331,-169,19,1012.88,80.3,44.8
"2016-07-31 22:50:53+00",8.9,10.9,,79.3,383,-94,-6,1012.97,80,31.4
"2016-07-31 22:55:53+00",8.3,9.3,,79.2,365,-24,14,1013.04,79.8,30.1
"2016-07-31 23:00:53+00",10.2,12.2,,78.6,448,-56,1,1013.2,79.4,0
"2016-07-31 23:05:53+00",9.8,10.8,,78.4,435,-14,22,1013.42,79,5.6
"2016-07-31 23:10:53+00",10.3,12.3,,78.3,443,143,11,1013.56,78.9,0
"2016-07-31 23:15:53+00",10.6,11.6,,78.2,473,52,22,1013.68,78.7,0
"2016-07-31 23:20:53+00",9.2,10.2,,78.3,410,25,9,1013.75,78.6,0
"2016-07-31 23:25:53+00",8.8,9.8,,78.3,380,73,23,1013.71,78.5,0
"2016-07-31 23:30:53+00",8.2,9.2,,78.2,357,54,23,1013.63,78.4,0
"2016-07-31 23:35:53+00",9.6,10.6,,78.2,415,92,25,1013.78,78.3,0
"2016-07-31 23:40:53+00",9.2,10.2,,78.2,414,-9,11,1013.55,78.2,0
"2016-07-31 23:45:53+00",9.8,10.8,,78,421,-100,0,1013.52,77.9,0
"2016-07-31 23:50:53+00",8.7,10.7,,77.9,369,-103,5,1013.66,77.8,0
"2016-07-31 23:55:53+00",7.8,8.8,,77.8,336,-69,18,1013.75,77.7,0
